Temperature
10 9 9 9 9 8 8 8 7 7 7 7 7 7 6 6 5 5 4 3 3 3 3 2 2 2 2 2 2 2 2 2 2 2 2 1 1 1
9 9 9 8 8 8 7 7 7 6 6 6 6 6 6 5 4 4 3 3 2 2 2 1 1 1 1 1 1 1 1 1 1 1 0 -0 -0 -1
8 8 8 7 7 7 7 6 6 6 5 5 5 5 4 4 3 3 2 2 2 1 1 1 1 0 0 0 -0 -0 -0 -0 -0 -1 -1 -1 -1 -2
7 7 7 7 6 6 6 5 5 5 5 4 4 4 3 3 2 2 2 1 1 1 1 0 -0 -0 -1 -1 -1 -1 -1 -1 -2 -2 -2 -2 -2 -2
6 6 6 5 5 5 5 5 4 4 3 3 3 3 2 2 1 1 1 1 1 0 -0 -1 -1 -1 -2 -2 -2 -2 -3 -3 -3 -2 -2 -2 -2 -2
5 5 4 4 4 4 3 3 3 3 2 2 2 2 1 1 1 1 0 0 -0 -1 -1 -1 -2 -2 -3 -3 -3 -3 -3 -3 -3 -3 -3 -3 -2 -2
3 3 3 2 2 2 2 2 1 1 1 1 1 1 1 0 0 -0 -1 -1 -2 -2 -2 -3 -3 -3 -3 -3 -3 -3 -3 -3 -3 -3 -3 -3 -3 -3
2 1 1 1 1 0 0 0 0 0 0 0 -0 -0 -1 -1 -1 -2 -2 -3 -3 -4 -4 -3 -4 -4 -3 -4 -4 -4 -3 -3 -3 -3 -3 -4 -4 -4
0 0 -0 -0 -0 -0 -0 -0 -0 -1 -1 -1 -1 -2 -2 -3 -3 -4 -4 -4 -5 -5 -5 -4 -4 -4 -4 -4 -4 -4 -4 -4 -4 -4 -4 -4 -4 -4
-0 -0 -1 -1 -1 -1 -1 -1 -2 -2 -2 -2 -3 -3 -4 -4 -5 -5 -5 -6 -6 -6 -6 -5 -4 -4 -4 -4 -4 -4 -4 -4 -4 -4 -4 -4 -3 -3
-1 -1 -2 -2 -2 -2 -2 -3 -3 -3 -4 -4 -5 -5 -5 -6 -6 -6 -6 -7 -6 -6 -6 -6 -5 -4 -3 -3 -3 -3 -4 -4 -4 -4 -4 -4 -3 -3
-2 -3 -3 -3 -4 -4 -4 -4 -4 -5 -5 -5 -6 -6 -6 -6 -7 -7 -7 -7 -7 -7 -6 -7 -6 -6 -5 -3 -4 -4 -4 -4 -4 -4 -4 -4 -4 -3
-4 -4 -4 -5 -5 -6 -6 -6 -6 -6 -6 -6 -6 -6 -7 -7 -7 -7 -7 -7 -7 -7 -8 -8 -7 -7 -7 -6 -3 -3 -3 -3 -3 -4 -4 -4 -4 -4
-5 -5 -6 -6 -6 -7 -7 -7 -7 -7 -7 -7 -7 -7 -7 -7 -7 -7 -8 -8 -7 -7 -7 -8 -8 -7 -8 -7 -5 -3 -3 -3 -3 -3 -3 -4 -4 -5
-6 -6 -7 -7 -7 -7 -7 -7 -8 -7 -7 -7 -7 -7 -7 -7 -7 -7 -7 -7 -7 -7 -7 -7 -8 -8 -8 -8 -7 -5 -4 -3 -3 -3 -4 -4 -5 -5
-6 -7 -7 -7 -7 -7 -8 -8 -8 -8 -8 -8 -8 -8 -8 -8 -8 -7 -7 -7 -7 -6 -7 -7 -7 -8 -8 -8 -8 -7 -5 -5 -4 -4 -5 -5 -5 -5
-7 -7 -7 -7 -7 -7 -8 -8 -8 -8 -8 -8 -8 -8 -8 -8 -7 -7 -7 -7 -7 -6 -6 -6 -7 -8 -8 -8 -8 -7 -6 -5 -5 -5 -6 -6 -5 -5
-7 -7 -7 -7 -7 -7 -8 -8 -8 -8 -8 -8 -8 -8 -8 -8 -7 -7 -8 -7 -7 -7 -7 -7 -7 -8 -8 -7 -7 -7 -6 -6 -6 -6 -7 -7 -6 -5
-7 -7 -7 -7 -8 -8 -8 -8 -8 -8 -8 -8 -8 -8 -8 -8 -8 -8 -8 -8 -8 -8 -7 -8 -8 -9 -10 -9 -8 -8 -8 -7 -7 -7 -7 -7 -7 -6
-7 -7 -7 -7 -7 -8 -8 -8 -8 -8 -8 -8 -8 -8 -8 -8 -8 -8 -8 -8 -8 -8 -8 -8 -8 -9 -10 -10 -10 -8 -8 -8 -8 -8 -7 -8 -8 -7
-6 -7 -7 -7 -7 -7 -8 -8 -8 -8 -8 -8 -8 -8 -8 -9 -9 -9 -9 -9 -9 -9 -9 -8 -8 -9 -10 -10 -10 -8 -7 -7 -8 -8 -8 -9 -9 -9
-6 -6 -6 -7 -7 -7 -7 -7 -7 -7 -8 -8 -8 -8 -8 -9 -9 -9 -9 -9 -9 -9 -9 -8 -8 -9 -9 -10 -10 -9 -7 -7 -7 -8 -8 -9 -10 -9
-6 -6 -6 -7 -7 -7 -7 -7 -7 -7 -8 -8 -8 -8 -8 -9 -9 -9 -9 -9 -9 -9 -9 -9 -9 -9 -9 -10 -10 -9 -9 -8 -8 -8 -7 -7 -8 -8
Wind_Speed
6 7 7 6 6 7 6 6 7 6 7 5 3 1 4 10 17 17 17 20 19 18 16 13 10 10 10 13 15 16 16 16 17 17 18 18 17 18
2 2 2 1 1 2 3 4 5 6 5 3 2 1 3 7 14 14 15 19 19 18 16 14 13 13 14 16 17 17 18 18 18 19 19 19 19 19
4 3 4 3 2 1 1 1 2 3 5 1 2 1 2 5 7 9 11 11 11 14 14 14 14 14 16 17 17 17 18 18 19 19 19 19 19 19
7 6 5 4 4 3 2 2 1 1 1 2 2 2 2 4 4 5 6 7 6 9 11 13 14 15 16 17 17 17 18 18 18 19 19 19 19 19
7 7 6 5 5 4 4 3 2 2 2 2 2 2 1 2 3 3 3 3 4 6 9 12 13 14 15 16 16 17 17 17 17 18 18 18 19 19
9 8 7 6 5 4 4 4 4 3 3 3 2 2 2 2 2 2 2 1 2 3 6 8 11 13 14 15 15 16 16 16 17 17 18 18 18 19
10 9 9 9 8 6 4 4 4 4 3 3 2 2 2 2 2 2 2 1 1 2 2 4 5 7 11 14 15 16 16 17 17 17 17 18 18 19
8 8 9 10 11 12 11 9 7 5 4 2 2 2 2 2 2 1 2 1 1 1 1 3 4 6 10 13 15 16 16 16 16 16 17 17 18 19
7 7 7 8 9 7 9 11 11 11 8 3 3 2 1 1 2 2 2 2 3 2 1 4 3 6 9 13 15 16 15 15 15 15 15 15 16 17
6 6 6 6 5 6 6 6 6 6 5 3 2 1 2 2 3 3 3 2 3 3 3 3 3 4 5 11 15 14 13 11 11 11 13 14 15 16
5 5 4 5 8 8 6 5 5 5 7 7 4 3 3 4 4 2 2 1 3 3 3 3 3 3 4 4 7 6 6 8 11 12 13 14 15 16
4 5 7 6 7 7 4 3 3 3 4 5 6 7 6 7 7 1 4 3 2 3 2 2 2 3 4 3 3 6 9 12 13 14 15 16 17 13
2 3 4 7 7 7 5 1 4 3 1 3 4 4 4 3 4 3 3 4 5 5 4 3 2 2 3 5 4 4 7 7 9 12 16 17 16 13
2 3 4 8 8 7 5 5 6 4 2 3 3 3 3 3 4 4 5 6 8 8 8 5 4 4 5 6 7 5 4 7 8 8 10 14 14 15
2 6 7 8 7 5 6 7 4 2 2 2 3 3 3 4 3 4 5 7 9 12 14 13 8 7 8 9 8 8 7 5 6 7 6 5 6 7
3 5 7 7 5 5 4 4 3 3 3 3 4 3 3 3 3 3 3 4 4 5 7 12 12 8 9 10 11 13 10 7 5 5 7 8 9 11
3 1 2 2 3 3 3 3 3 3 3 3 3 4 4 4 4 4 4 4 5 6 6 4 7 10 9 10 11 13 13 12 11 9 8 11 10 9
3 1 2 3 3 4 4 4 3 3 3 3 4 4 5 5 6 6 6 6 8 9 9 7 6 6 6 9 15 14 13 12 10 9 8 11 14 9
2 2 3 4 4 4 4 4 4 4 4 4 5 5 5 6 6 7 7 8 9 10 9 8 6 7 10 11 7 13 11 10 8 10 10 12 15 12
3 4 4 5 5 5 5 5 5 5 5 5 5 6 6 6 7 8 8 9 10 10 10 8 8 9 11 11 10 9 15 13 12 14 13 12 13 18
4 5 5 5 5 5 5 5 6 6 6 6 6 7 6 6 8 8 9 13 13 11 12 11 10 14 10 8 11 12 10 16 18 13 12 13 15 15
5 5 5 5 5 6 6 6 6 6 7 7 7 7 7 7 9 10 10 11 11 11 13 12 10 8 9 12 16 17 17 13 16 25 27 24 14 9
6 6 6 6 6 6 6 7 8 7 7 7 8 8 7 8 9 10 11 11 12 12 13 13 11 10 12 13 15 16 18 18 14 14 15 22 29 33
Wind_Direction
259 251 246 244 235 231 223 212 218 235 237 215 203 214 182 175 178 177 179 194 203 212 220 228 239 247 256 265 269 272 276 278 278 277 275 274 272 271
323 305 285 294 270 248 239 230 222 232 240 189 178 148 170 171 178 173 180 194 205 211 219 228 239 248 255 261 265 270 272 274 274 274 273 273 272 270
23 35 35 32 28 19 7 255 233 217 233 181 111 107 142 160 159 156 170 186 203 216 226 235 242 250 257 262 266 268 270 272 273 273 273 272 272 272
37 45 42 44 45 34 37 34 25 47 187 191 134 127 136 158 141 147 162 177 189 216 233 244 252 258 263 265 267 269 270 270 271 271 270 270 271 271
43 45 38 43 44 37 42 43 33 37 58 120 123 106 104 138 132 140 158 160 193 224 244 255 261 265 268 268 269 270 271 271 270 269 268 269 269 270
46 45 40 41 45 44 46 43 42 47 57 85 97 102 104 104 120 134 152 155 207 234 251 260 264 269 272 275 276 277 277 274 272 270 269 268 267 268
47 43 42 47 53 59 63 54 51 52 55 61 66 72 84 97 120 128 157 130 228 237 252 262 270 274 277 278 277 276 273 269 267 267 267 266 266 266
45 38 36 38 44 51 60 60 59 57 50 46 49 60 67 73 92 116 123 120 268 237 217 259 253 263 265 265 268 268 266 265 266 267 267 268 268 268
45 40 40 37 40 37 43 45 43 46 49 61 63 55 57 96 125 119 159 187 224 236 232 273 250 260 264 266 271 270 268 267 267 268 270 271 272 273
42 41 38 20 28 46 41 36 29 23 31 61 108 155 176 182 173 178 194 216 254 247 201 260 271 263 269 271 276 273 267 266 271 277 281 282 282 280
22 26 30 8 23 38 44 30 20 6 21 30 27 347 313 290 241 169 179 216 292 276 213 228 282 294 285 282 287 277 269 282 288 289 288 287 285 282
10 5 8 11 13 23 53 34 3 334 347 355 355 349 345 333 321 249 185 190 222 277 264 225 274 327 313 290 267 271 276 282 283 283 287 289 286 282
14 351 335 349 352 350 2 345 303 322 355 338 327 325 331 333 331 319 204 179 194 234 246 207 234 229 252 290 284 245 245 254 264 270 281 284 280 271
339 304 304 328 336 340 343 318 327 5 7 329 322 321 324 317 311 309 290 249 232 233 241 215 224 225 256 276 279 275 247 245 252 263 263 273 273 272
296 315 323 328 335 336 325 332 359 8 322 311 302 291 273 270 284 298 295 282 270 260 252 235 229 242 249 262 269 280 292 273 244 250 252 244 250 258
310 322 337 344 352 342 338 350 348 304 287 271 277 277 279 279 281 281 287 302 296 283 254 246 237 237 254 259 267 274 274 275 270 245 254 264 261 255
285 294 336 334 336 328 320 311 308 313 316 297 285 289 293 294 293 291 282 289 280 287 293 274 250 242 243 254 265 265 266 266 266 271 272 277 270 255
336 319 301 301 299 300 302 302 296 290 284 278 277 278 286 291 293 290 283 281 282 283 285 287 288 286 265 252 239 254 259 262 265 262 258 272 278 265
333 287 281 282 281 282 280 276 276 277 275 273 270 270 272 277 281 284 282 279 277 278 278 276 272 273 282 285 260 233 244 259 266 268 263 263 272 276
261 267 269 271 271 271 271 271 273 277 272 267 265 264 263 266 272 272 272 270 274 277 277 266 252 250 257 272 278 269 255 258 266 270 272 270 270 274
268 265 263 264 265 266 266 266 266 269 269 266 264 262 260 260 266 267 268 272 274 273 274 272 260 263 266 270 272 270 259 253 254 259 267 275 279 279
265 265 265 263 262 263 265 266 268 268 268 264 263 262 258 256 262 266 268 269 269 267 269 273 270 266 259 263 268 276 281 275 264 265 263 259 263 267
263 264 264 265 262 260 260 262 265 267 264 263 264 263 259 261 263 264 266 266 268 271 273 278 277 267 264 263 268 273 277 280 281 277 269 260 257 258
Height
1485 1485 1484 1483 1483 1482 1481 1481 1482 1479 1477 1478 1479 1479 1480 1481 1483 1485 1488 1490 1493 1496 1498 1499 1501 1503 1503 1504 1504 1504 1503 1503 1502 1502 1501 1501 1501 1501
1479 1478 1477 1476 1476 1475 1475 1474 1474 1474 1471 1471 1472 1472 1473 1474 1476 1478 1481 1484 1487 1489 1491 1493 1494 1495 1496 1497 1496 1496 1496 1495 1494 1494 1494 1494 1494 1494
1473 1472 1471 1471 1470 1469 1469 1468 1467 1467 1466 1465 1466 1466 1467 1469 1470 1472 1475 1478 1480 1483 1485 1486 1487 1488 1489 1489 1489 1488 1488 1487 1486 1486 1486 1486 1486 1487
1468 1467 1466 1466 1465 1464 1463 1462 1462 1462 1461 1461 1461 1461 1463 1464 1466 1468 1470 1472 1475 1477 1478 1480 1480 1481 1482 1482 1481 1480 1480 1479 1479 1479 1479 1479 1479 1479
1465 1464 1463 1462 1461 1460 1459 1458 1458 1457 1457 1457 1457 1458 1460 1461 1462 1464 1466 1468 1469 1470 1471 1473 1473 1474 1474 1474 1473 1473 1472 1471 1471 1471 1471 1471 1471 1472
1463 1462 1461 1460 1459 1458 1457 1456 1455 1455 1455 1455 1455 1456 1457 1458 1459 1461 1462 1463 1464 1465 1465 1466 1466 1466 1466 1466 1466 1465 1464 1464 1464 1464 1464 1464 1465 1465
1461 1460 1459 1459 1458 1457 1456 1455 1454 1454 1454 1454 1454 1454 1455 1455 1456 1457 1458 1458 1459 1459 1459 1460 1459 1459 1459 1459 1458 1458 1458 1458 1458 1458 1458 1458 1458 1459
1461 1460 1459 1459 1458 1457 1456 1455 1454 1454 1453 1453 1452 1453 1453 1453 1453 1454 1454 1454 1455 1455 1454 1454 1454 1453 1453 1452 1452 1451 1451 1451 1451 1452 1452 1452 1452 1452
1462 1461 1460 1459 1458 1457 1455 1454 1453 1452 1452 1451 1451 1451 1451 1450 1450 1450 1450 1450 1450 1450 1449 1447 1448 1447 1447 1446 1445 1445 1445 1445 1446 1446 1446 1445 1445 1445
1462 1461 1460 1458 1457 1455 1454 1453 1452 1450 1449 1449 1448 1448 1448 1447 1447 1447 1447 1446 1446 1445 1444 1442 1442 1442 1441 1440 1440 1440 1440 1440 1440 1440 1440 1439 1438 1438
1462 1460 1459 1457 1455 1453 1452 1451 1450 1448 1447 1446 1446 1445 1445 1444 1444 1443 1443 1442 1441 1441 1441 1439 1438 1437 1436 1435 1435 1435 1435 1435 1435 1434 1433 1432 1431 1430
1461 1459 1457 1455 1454 1452 1450 1449 1447 1446 1445 1444 1443 1442 1442 1441 1441 1440 1440 1439 1438 1438 1437 1436 1435 1433 1431 1430 1430 1430 1430 1430 1429 1428 1426 1425 1424 1422
1459 1457 1455 1454 1452 1450 1448 1447 1445 1444 1442 1441 1440 1440 1439 1438 1438 1438 1437 1437 1436 1435 1435 1433 1431 1429 1428 1424 1423 1424 1424 1423 1422 1421 1420 1418 1417 1415
1457 1455 1453 1452 1450 1448 1446 1445 1443 1442 1440 1439 1438 1437 1436 1436 1435 1435 1434 1433 1432 1431 1430 1429 1426 1425 1422 1419 1416 1415 1416 1415 1414 1413 1412 1411 1410 1408
1455 1453 1451 1449 1447 1446 1444 1442 1441 1439 1438 1437 1436 1435 1434 1433 1432 1431 1430 1429 1427 1426 1425 1423 1421 1419 1417 1414 1410 1408 1407 1406 1406 1405 1404 1403 1401 1399
1452 1450 1449 1447 1445 1443 1442 1440 1439 1437 1436 1434 1433 1432 1431 1430 1428 1427 1425 1423 1421 1421 1420 1417 1415 1413 1410 1408 1405 1401 1400 1398 1397 1397 1394 1392 1391 1389
1450 1448 1446 1444 1443 1441 1439 1438 1436 1435 1433 1432 1430 1429 1427 1426 1424 1422 1420 1418 1416 1413 1412 1412 1409 1406 1403 1401 1397 1394 1392 1390 1389 1388 1385 1381 1380 1379
1447 1445 1443 1441 1439 1438 1436 1434 1433 1431 1430 1428 1426 1425 1423 1421 1419 1417 1415 1413 1410 1407 1405 1404 1402 1399 1395 1392 1390 1386 1384 1382 1380 1379 1376 1371 1367 1368
1444 1442 1440 1438 1436 1435 1433 1431 1429 1428 1426 1424 1422 1420 1418 1416 1414 1411 1409 1407 1404 1401 1399 1397 1395 1392 1388 1382 1379 1379 1376 1373 1371 1368 1366 1363 1358 1356
1441 1439 1437 1435 1433 1431 1429 1427 1425 1423 1422 1420 1417 1415 1413 1411 1408 1405 1403 1400 1397 1394 1391 1390 1388 1386 1382 1376 1370 1367 1369 1365 1362 1358 1355 1353 1349 1346
1438 1435 1433 1431 1429 1427 1425 1423 1420 1418 1417 1414 1412 1410 1408 1405 1402 1399 1396 1394 1391 1387 1383 1381 1380 1379 1374 1369 1362 1355 1356 1357 1353 1350 1346 1343 1338 1335
1434 1431 1429 1427 1425 1422 1420 1418 1415 1413 1411 1409 1406 1404 1401 1398 1395 1392 1389 1386 1383 1379 1376 1373 1371 1369 1365 1361 1353 1347 1344 1344 1343 1340 1337 1335 1332 1325
1430 1427 1425 1423 1420 1418 1415 1413 1410 1407 1405 1402 1400 1397 1394 1391 1388 1385 1382 1378 1375 1371 1368 1364 1361 1358 1354 1350 1345 1339 1334 1331 1329 1326 1323 1322 1321 1317